Location: Andiroba
(19.8650°S, 43.9258°W)
Time: 01:27:38
(UTC+00:00)

Cosmos 1656 Rocket - Pass Details

Date: 15 June 2024
Orbit: 793 x 846 km, 71.1° (Epoch: 24 July)

Event Time Altitude Azimuth Distance (km) Brightness Sun altitude
Exits shadow 08:18:22 24° 237° (WSW) 1,606 4.6 -16.1°
Maximum altitude 08:20:46 36° 283° (WNW) 1,256 4.2 -15.5°
Drops below altitude 10° 08:25:39 10° 348° (NNW) 2,357 6.1 -14.5°
Sets 08:28:12 0° 357° (N) 3,276 7.0 -13.9°
